Le nostre stazioni meteo in Italia

Pubblicità
Il mio iltempo24.it
Ronchi Dei Legionari, Italia (16108): Temperatura & dewpoint: 17.07.2019 06:00:00 - 23.07.2019 06:00:00 (CEST)Ronchi Dei Legionari, Italia (16108): velocità del vento: 17.07.2019 06:00:00 - 23.07.2019 06:00:00 (CEST)Ronchi Dei Legionari, Italia (16108): direzione del vento: 17.07.2019 06:00:00 - 23.07.2019 06:00:00 (CEST)Ronchi Dei Legionari, Italia (16108): reduced air pressure: 17.07.2019 06:00:00 - 23.07.2019 06:00:00 (CEST)Ronchi Dei Legionari, Italia (16108): visibility: 17.07.2019 06:00:00 - 23.07.2019 06:00:00 (CEST)Ronchi Dei Legionari, Italia (16108): precipitazioni: 17.07.2019 06:00:00 - 23.07.2019 06:00:00 (CEST)
Data & Tempo tt [°C] td [°C] ff [km/h] ff [kn] dd ppp [hPa] vv [km] rr [mm]
23.07.2019 06:00:00 22,0 18,0 8 4 NE - 10 -
23.07.2019 05:00:00 21,7 18,4 5 3 NNE 1019,6 10 0,0
23.07.2019 04:00:00 23,0 18,0 4 2 NE - 10 -
23.07.2019 03:00:00 23,0 18,0 5 3 ENE - 10 -
23.07.2019 02:00:00 23,0 19,6 8 4 NE 1020,2 10 -
23.07.2019 01:00:00 24,0 21,0 2 1 - - 10 -
23.07.2019 00:00:00 26,0 22,0 8 4 ESE - 10 -
22.07.2019 23:00:00 26,3 23,1 8 4 SE 1020,1 10 0,0
22.07.2019 22:00:00 27,0 23,0 9 5 ESE - 10 -
22.07.2019 21:00:00 29,0 22,0 8 4 SSE - 10 -
22.07.2019 20:00:00 30,9 19,3 5 3 NO 1019,3 10 -
22.07.2019 19:00:00 32,0 18,0 9 5 ONO - 10 -
22.07.2019 18:00:00 33,0 18,0 13 7 ONO - 10 -
22.07.2019 17:00:00 33,8 16,9 15 8 O 1019,4 10 0,0
22.07.2019 16:00:00 34,0 17,0 11 6 O - 10 -
22.07.2019 15:00:00 34,0 16,0 13 7 O - 10 -
22.07.2019 14:00:00 33,8 16,9 11 6 O 1020,5 10 -
22.07.2019 13:00:00 33,0 18,0 11 6 OSO - 10 -
22.07.2019 12:00:00 33,0 17,0 5 3 ONO - 10 -
22.07.2019 11:00:00 31,9 17,3 5 3 N 1021,3 10 0,0
22.07.2019 10:00:00 29,0 19,0 4 2 - - 10 -
22.07.2019 09:00:00 28,0 19,0 4 2 - - 10 -
22.07.2019 08:00:00 25,1 19,0 5 3 NNE 1021,4 10 -
22.07.2019 07:00:00 22,0 19,0 4 2 - - 10 -
22.07.2019 06:00:00 20,0 18,0 4 2 NNE - 10 -
22.07.2019 05:00:00 20,8 18,8 4 2 - 1020,9 10 0,0
22.07.2019 04:00:00 21,0 20,0 9 5 NNE - 10 -
22.07.2019 03:00:00 22,0 21,0 5 3 NNE - 10 -
22.07.2019 02:00:00 22,6 21,3 5 3 ENE 1020,8 10 -
22.07.2019 01:00:00 23,0 22,0 4 2 N - 10 -
22.07.2019 00:00:00 24,0 22,0 0 0 N - 10 -
21.07.2019 23:00:00 24,0 22,9 5 3 NNE 1020,6 10 0,0
21.07.2019 22:00:00 26,0 23,0 2 1 - - 10 -
21.07.2019 21:00:00 27,0 23,0 5 3 S - 10 -
21.07.2019 20:00:00 28,1 23,0 9 5 S 1018,7 10 -
21.07.2019 19:00:00 30,0 20,0 8 4 SSE - 10 -
21.07.2019 18:00:00 30,0 20,0 9 5 O - 10 -
21.07.2019 17:00:00 29,2 19,7 11 6 OSO 1018,7 10 0,0
21.07.2019 16:00:00 30,0 20,0 15 8 SSO - 10 -
21.07.2019 15:00:00 31,0 19,0 13 7 SO - 10 -
21.07.2019 14:00:00 30,6 20,6 8 4 S 1018,9 10 -
21.07.2019 13:00:00 30,0 19,0 5 3 - - 10 -
21.07.2019 12:00:00 28,0 19,0 11 6 OSO - 10 -
21.07.2019 11:00:00 28,2 19,0 9 5 SO 1019,3 10 0,0
21.07.2019 10:00:00 27,0 20,0 4 2 - - 10 -
21.07.2019 09:00:00 26,0 18,0 2 1 - - 10 -
21.07.2019 08:00:00 23,2 17,9 2 1 - 1019,2 10 -
21.07.2019 07:00:00 20,0 18,0 5 3 NNE - 10 -
21.07.2019 06:00:00 20,0 17,0 5 3 ESE - 10 -
21.07.2019 05:00:00 20,6 16,6 5 3 N 1018,6 10 0,0
21.07.2019 04:00:00 22,0 16,0 9 5 E - 10 -
21.07.2019 03:00:00 21,0 17,0 5 3 E - 10 -
21.07.2019 02:00:00 21,4 16,0 9 5 ESE 1019,3 10 -
21.07.2019 01:00:00 22,0 18,0 4 2 - - 10 -
21.07.2019 00:00:00 22,0 18,0 4 2 - - 10 -
20.07.2019 23:00:00 22,9 19,5 4 2 NNE 1018,4 10 0,0
20.07.2019 22:00:00 25,0 21,0 9 5 SE - 10 -
20.07.2019 21:00:00 26,0 20,0 8 4 SSE - 10 -
20.07.2019 20:00:00 27,0 17,7 8 4 S 1017,1 10 -
20.07.2019 19:00:00 29,0 16,0 11 6 SSO - 10 -
20.07.2019 18:00:00 29,0 16,0 11 6 S - 10 -
20.07.2019 17:00:00 29,9 15,2 15 8 SSO 1017,3 10 0,0
20.07.2019 16:00:00 30,0 14,0 15 8 SO - 10 -
20.07.2019 15:00:00 30,0 14,0 13 7 SO - 10 -
20.07.2019 14:00:00 29,8 11,9 15 8 SO 1018,1 10 -
20.07.2019 13:00:00 29,0 18,0 9 5 SSO - 10 -
20.07.2019 12:00:00 29,0 16,0 5 3 ONO - 10 -
20.07.2019 11:00:00 28,4 16,5 5 3 ONO 1018,1 10 0,0
20.07.2019 10:00:00 27,0 17,0 4 2 - - 10 -
20.07.2019 09:00:00 24,0 17,0 4 2 - - 10 -
20.07.2019 08:00:00 21,8 15,4 5 3 E 1017,5 10 -
20.07.2019 07:00:00 18,0 15,0 5 3 ENE - 10 -
20.07.2019 06:00:00 16,0 15,0 2 1 - - 10 -
20.07.2019 05:00:00 16,3 15,0 5 3 N 1017,0 10 0,0
20.07.2019 04:00:00 17,0 15,0 2 1 - - 10 -
20.07.2019 03:00:00 17,0 15,0 5 3 NNE - 10 -
20.07.2019 02:00:00 18,6 14,6 5 3 ENE 1017,3 10 -
20.07.2019 01:00:00 18,0 16,0 4 2 - - 10 -
20.07.2019 00:00:00 21,0 16,0 9 5 E - 10 -
19.07.2019 23:00:00 21,1 18,7 2 1 - 1016,8 10 0,0
19.07.2019 22:00:00 23,0 19,0 8 4 SE - 10 -
19.07.2019 21:00:00 25,0 19,0 9 5 SSE - 10 -
19.07.2019 20:00:00 26,8 15,8 9 5 S 1015,4 10 -
19.07.2019 19:00:00 28,0 17,0 15 8 SSO - 10 -
19.07.2019 18:00:00 29,0 17,0 16 9 SO - 10 -
19.07.2019 17:00:00 29,6 17,2 16 9 OSO 1015,0 10 0,0
19.07.2019 16:00:00 30,0 16,0 18 10 SO - 10 -
19.07.2019 15:00:00 30,0 14,0 11 6 SO - 10 -
19.07.2019 14:00:00 30,2 13,6 11 6 SO 1015,3 10 -
19.07.2019 13:00:00 29,0 14,0 11 6 O - 10 -
19.07.2019 12:00:00 28,0 14,0 5 3 O - 10 -
19.07.2019 11:00:00 27,2 15,4 5 3 O 1015,8 10 0,0
19.07.2019 10:00:00 26,0 15,0 5 3 - - 10 -
19.07.2019 09:00:00 24,0 15,0 8 4 N - 10 -
19.07.2019 08:00:00 21,9 15,2 5 3 N 1015,3 10 -
19.07.2019 07:00:00 18,0 15,0 5 3 N - 10 -
19.07.2019 06:00:00 18,0 15,0 5 3 N - 10 -
19.07.2019 05:00:00 17,4 15,7 5 3 NNO 1014,8 10 0,0
19.07.2019 04:00:00 18,0 15,0 8 4 NNE - 10 -
19.07.2019 03:00:00 17,0 15,0 4 2 NNE - 10 -
19.07.2019 02:00:00 17,9 15,0 9 5 N 1014,7 10 -
19.07.2019 01:00:00 18,0 15,0 9 5 NNE - 10 -
19.07.2019 00:00:00 19,0 16,0 9 5 NNE - 10 -
18.07.2019 23:00:00 18,8 16,4 5 3 N 1014,0 10 0,0
18.07.2019 22:00:00 20,0 17,0 8 4 NNO - 10 -
18.07.2019 21:00:00 22,0 16,0 5 3 N - 10 -
18.07.2019 20:00:00 22,7 14,7 13 7 N 1012,4 10 -
18.07.2019 19:00:00 26,0 14,0 8 4 NE - 10 -
18.07.2019 18:00:00 26,0 15,0 4 2 N - 10 -
18.07.2019 17:00:00 26,7 16,7 15 8 OSO 1012,0 10 0,0
18.07.2019 16:00:00 27,0 16,0 16 9 SO - 10 -
18.07.2019 15:00:00 29,0 16,0 21 11 SO - 10 -
18.07.2019 14:00:00 28,5 13,5 15 8 SO 1012,0 10 -
18.07.2019 13:00:00 - - - - - - - -
18.07.2019 12:00:00 28,0 16,0 4 2 - - 10 -
18.07.2019 11:00:00 26,2 16,0 5 3 NNE 1011,7 10 0,0
18.07.2019 10:00:00 23,0 18,0 5 3 N - 10 -
18.07.2019 09:00:00 22,0 17,0 5 3 N - 10 -
18.07.2019 08:00:00 19,6 17,6 5 3 N 1011,6 10 -
18.07.2019 07:00:00 19,0 17,0 5 3 ONO - 10 -
18.07.2019 06:00:00 19,0 17,0 11 6 E - 10 -
18.07.2019 05:00:00 18,9 17,7 13 7 E 1011,5 10 0,0
18.07.2019 04:00:00 19,0 18,0 8 4 NNE - 10 -
18.07.2019 03:00:00 22,0 18,0 16 9 NNO - 10 -
18.07.2019 02:00:00 21,1 16,8 5 3 N 1011,8 10 -
18.07.2019 01:00:00 22,0 15,0 8 4 E - 10 -
18.07.2019 00:00:00 22,0 17,0 0 0 N - 10 -
17.07.2019 23:00:00 22,4 17,0 9 5 NNE 1011,4 10 0,0
17.07.2019 22:00:00 24,0 18,0 5 3 NE - 10 -
17.07.2019 21:00:00 24,0 18,0 5 3 ESE - 10 -
17.07.2019 20:00:00 25,7 16,5 8 4 S 1010,9 10 -
17.07.2019 19:00:00 27,0 16,0 8 4 S - 10 -
17.07.2019 18:00:00 28,0 15,0 13 7 SSO - 10 -
17.07.2019 17:00:00 28,7 13,7 15 8 SSO 1011,4 10 0,0
17.07.2019 16:00:00 29,0 15,0 15 8 SSO - 10 -
17.07.2019 15:00:00 29,0 15,0 18 10 SSO - 10 -
17.07.2019 14:00:00 28,3 16,5 15 8 SSO 1012,4 10 -
17.07.2019 13:00:00 28,0 16,0 13 7 SO - 10 -
17.07.2019 12:00:00 28,0 16,0 11 6 SO - 10 -
17.07.2019 11:00:00 26,7 17,9 9 5 S 1013,2 10 0,0
17.07.2019 10:00:00 26,0 18,0 4 2 - - 10 -
17.07.2019 09:00:00 24,0 16,0 5 3 E - 10 -
17.07.2019 08:00:00 20,9 14,8 4 2 - 1013,7 10 -
17.07.2019 07:00:00 17,0 15,0 4 2 NNE - 10 -
17.07.2019 06:00:00 16,0 14,0 4 2 - - 10 -

tt = Temperatura
td = dewpoint
ff = velocità del vento
dd = direzione del vento
ppp = reduced air pressure
vv = visibility
rr = precipitazioni

Stazioni seguenti

WeatherPro
AMSI
MeteoEarth